Location: Proctor
(47.8934°N, 114.3048°W)
Time: 10:16:53
(UTC+00:00)

Transit 4A - Pass Details

Date: 03 July 2024
Orbit: 870 x 973 km, 66.8° (Epoch: 13 July)

Event Time Altitude Azimuth Distance (km) Brightness Sun altitude
Rises 10:11:14 0° 326° (NW) 3,489 11.2 -11.7°
Reaches altitude 10° 10:14:10 10° 340° (NNW) 2,559 10.7 -11.4°
Maximum altitude 10:19:02 26° 35° (NE) 1,716 10.4 -10.9°
Drops below altitude 10° 10:23:59 10° 90° (E) 2,604 10.8 -10.4°
Sets 10:26:59 0° 103° (ESE) 3,563 11.3 -10.1°
